| time (UTC) | temp F | wind direction | speed MPH | gust MPH | rain 1hr in | rain 24hr in | rain mn in | humidity % | barometer mb |
| 20260507055621 | 41 | 244 | 1.0 | 2.0 | 0.00 | 0.61 | 0.00 | 87 | 1012.1 |
| 20260507054620 | 41 | 0.0 | 0.0 | 0.00 | 0.61 | 0.00 | 87 | 1012.1 | |
| 20260507053620 | 41 | 354 | 2.0 | 3.0 | 0.00 | 0.61 | 0.00 | 88 | 1012.1 |
| 20260507052640 | 41 | 54 | 1.0 | 2.0 | 0.00 | 0.61 | 0.00 | 90 | 1012.1 |
| 20260507051621 | 42 | 266 | 0.0 | 1.0 | 0.00 | 0.61 | 0.00 | 91 | 1012.0 |
| 20260507050621 | 42 | 21 | 1.0 | 2.0 | 0.00 | 0.61 | 0.00 | 91 | 1012.2 |
| 20260507045640 | 42 | 310 | 2.0 | 3.0 | 0.00 | 0.61 | 0.00 | 93 | 1012.2 |
| 20260507044620 | 42 | 77 | 1.0 | 2.0 | 0.00 | 0.61 | 0.00 | 94 | 1012.2 |
| 20260507043620 | 42 | 0.0 | 0.0 | 0.00 | 0.61 | 0.00 | 95 | 1012.1 | |
| 20260507042618 | 43 | 305 | 1.0 | 2.0 | 0.00 | 0.61 | 0.00 | 97 | 1012.1 |
| 20260507041616 | 43 | 331 | 1.0 | 5.0 | 0.00 | 0.61 | 0.00 | 98 | 1012.1 |
| 20260507040616 | 43 | 320 | 2.0 | 3.0 | 0.00 | 0.61 | 0.00 | 98 | 1012.1 |
| 20260507035616 | 44 | 10 | 1.0 | 3.0 | 0.00 | 0.61 | 0.61 | 99 | 1011.7 |
| 20260507034616 | 44 | 49 | 2.0 | 3.0 | 0.00 | 0.61 | 0.61 | 99 | 1011.3 |
| 20260507033637 | 44 | 59 | 1.0 | 2.0 | 0.00 | 0.61 | 0.61 | 99 | 1011.2 |
| 20260507032616 | 45 | 51 | 2.0 | 3.0 | 0.00 | 0.61 | 0.61 | 99 | 1011.2 |
| 20260507031618 | 45 | 32 | 2.0 | 3.0 | 0.00 | 0.61 | 0.61 | 99 | 1011.3 |
| 20260507030617 | 45 | 334 | 0.0 | 0.0 | 0.00 | 0.61 | 0.61 | 99 | 1011.3 |
| 20260507025617 | 45 | 15 | 0.0 | 1.0 | 0.00 | 0.61 | 0.61 | 99 | 1011.4 |
| 20260507024617 | 45 | 0.0 | 0.0 | 0.00 | 0.61 | 0.61 | 99 | 1011.4 | |
| 20260507023617 | 45 | 0.0 | 0.0 | 0.00 | 0.61 | 0.61 | 99 | 1011.3 | |
| 20260507022618 | 45 | 334 | 0.0 | 0.0 | 0.00 | 0.61 | 0.61 | 99 | 1011.1 |
| 20260507021618 | 45 | 308 | 1.0 | 1.0 | 0.00 | 0.61 | 0.61 | 99 | 1011.3 |
| 20260507020618 | 45 | 0.0 | 0.0 | 0.00 | 0.61 | 0.61 | 99 | 1011.3 | |
| 20260507015619 | 45 | 238 | 0.0 | 1.0 | 0.00 | 0.61 | 0.61 | 99 | 1011.3 |
| 20260507014638 | 45 | 0.0 | 0.0 | 0.00 | 0.66 | 0.61 | 99 | 1011.5 | |
| 20260507013615 | 45 | 222 | 2.0 | 2.0 | 0.00 | 0.67 | 0.61 | 99 | 1011.2 |
| 20260507012616 | 44 | 251 | 2.0 | 3.0 | 0.00 | 0.67 | 0.61 | 99 | 1011.4 |
| 20260507011616 | 44 | 281 | 0.0 | 1.0 | 0.00 | 0.67 | 0.61 | 99 | 1011.4 |
| 20260507010616 | 44 | 0.0 | 0.0 | 0.00 | 0.67 | 0.61 | 99 | 1011.2 | |
| 20260507005615 | 44 | 73 | 1.0 | 2.0 | 0.00 | 0.67 | 0.61 | 99 | 1011.0 |
| 20260507004637 | 45 | 0.0 | 0.0 | 0.00 | 0.67 | 0.61 | 99 | 1011.0 | |
| 20260507003616 | 45 | 0.0 | 0.0 | 0.00 | 0.67 | 0.61 | 99 | 1010.8 | |
| 20260507002617 | 45 | 200 | 0.0 | 1.0 | 0.00 | 0.67 | 0.61 | 99 | 1010.8 |
| 20260507001616 | 45 | 0.0 | 0.0 | 0.00 | 0.67 | 0.61 | 99 | 1010.7 | |
| 20260507000617 | 45 | 0.0 | 0.0 | 0.00 | 0.67 | 0.61 | 99 | 1010.6 | |
| 20260506235617 | 44 | 216 | 1.0 | 2.0 | 0.00 | 0.72 | 0.61 | 99 | 1010.6 |
| 20260506234617 | 44 | 0.0 | 0.0 | 0.00 | 0.72 | 0.61 | 99 | 1010.5 | |
| 20260506233638 | 45 | 0.0 | 0.0 | 0.00 | 0.72 | 0.61 | 99 | 1010.4 | |
| 20260506232638 | 45 | 0.0 | 0.0 | 0.00 | 0.72 | 0.61 | 99 | 1010.5 | |
| 20260506231618 | 44 | 0.0 | 0.0 | 0.00 | 0.72 | 0.61 | 99 | 1010.4 | |
| 20260506230618 | 44 | 0 | 0.0 | 1.0 | 0.00 | 0.72 | 0.61 | 99 | 1010.2 |
| 20260506225618 | 44 | 78 | 2.0 | 3.0 | 0.00 | 0.72 | 0.61 | 99 | 1010.1 |
| 20260506224639 | 44 | 0.0 | 0.0 | 0.00 | 0.72 | 0.61 | 100 | 1010.0 | |
| 20260506223618 | 44 | 313 | 0.0 | 1.0 | 0.00 | 0.72 | 0.61 | 100 | 1010.1 |
| 20260506222618 | 44 | 0.0 | 0.0 | 0.00 | 0.80 | 0.61 | 100 | 1009.9 | |
| 20260506221616 | 44 | 26 | 0.0 | 1.0 | 0.00 | 0.80 | 0.61 | 100 | 1009.9 |
| 20260506220616 | 44 | 0.0 | 0.0 | 0.00 | 0.80 | 0.61 | 100 | 1009.8 | |
| 20260506215616 | 44 | 75 | 2.0 | 2.0 | 0.00 | 0.80 | 0.61 | 100 | 1010.0 |
| 20260506214616 | 44 | 49 | 1.0 | 3.0 | 0.00 | 0.80 | 0.61 | 100 | 1010.1 |
| 20260506213617 | 44 | 142 | 1.0 | 3.0 | 0.00 | 0.80 | 0.61 | 100 | 1010.0 |
| 20260506212617 | 44 | 36 | 1.0 | 2.0 | 0.00 | 0.80 | 0.61 | 100 | 1009.9 |
| 20260506211617 | 43 | 62 | 1.0 | 1.0 | 0.00 | 0.80 | 0.61 | 100 | 1009.9 |
| 20260506210617 | 43 | 62 | 2.0 | 3.0 | 0.00 | 0.80 | 0.61 | 100 | 1009.9 |
| 20260506205638 | 44 | 81 | 3.0 | 4.0 | 0.00 | 0.80 | 0.61 | 100 | 1009.8 |
| 20260506204618 | 43 | 86 | 3.0 | 4.0 | 0.00 | 0.80 | 0.61 | 100 | 1009.8 |
| 20260506203617 | 44 | 311 | 2.0 | 4.0 | 0.00 | 0.80 | 0.61 | 100 | 1009.7 |
| 20260506202617 | 44 | 7 | 0.0 | 2.0 | 0.00 | 0.80 | 0.61 | 100 | 1009.5 |
| 20260506201617 | 44 | 0 | 2.0 | 4.0 | 0.00 | 0.80 | 0.61 | 100 | 1009.3 |
| 20260506200618 | 44 | 20 | 1.0 | 3.0 | 0.00 | 0.80 | 0.61 | 100 | 1009.3 |
| 20260506195618 | 44 | 58 | 3.0 | 3.0 | 0.00 | 0.80 | 0.61 | 100 | 1009.1 |
| 20260506194619 | 44 | 0.0 | 0.0 | 0.00 | 0.80 | 0.61 | 100 | 1009.2 | |
| 20260506193636 | 45 | 64 | 3.0 | 3.0 | 0.00 | 0.80 | 0.61 | 99 | 1009.1 |
| 20260506192616 | 44 | 75 | 3.0 | 3.0 | 0.00 | 0.80 | 0.61 | 99 | 1008.8 |
| 20260506191616 | 44 | 62 | 1.0 | 3.0 | 0.00 | 0.80 | 0.61 | 99 | 1008.8 |
| 20260506190616 | 45 | 81 | 3.0 | 4.0 | 0.00 | 0.80 | 0.61 | 99 | 1008.8 |
| 20260506185616 | 45 | 67 | 2.0 | 4.0 | 0.00 | 0.80 | 0.61 | 99 | 1008.7 |
| 20260506184616 | 45 | 28 | 1.0 | 2.0 | 0.00 | 0.80 | 0.61 | 99 | 1008.6 |
| 20260506183616 | 45 | 56 | 1.0 | 2.0 | 0.00 | 0.80 | 0.61 | 99 | 1008.7 |
| 20260506182617 | 45 | 54 | 1.0 | 3.0 | 0.00 | 0.80 | 0.61 | 99 | 1008.7 |
| 20260506181617 | 45 | 266 | 1.0 | 2.0 | 0.00 | 0.80 | 0.61 | 99 | 1008.6 |
| 20260506180638 | 45 | 51 | 0.0 | 2.0 | 0.00 | 0.80 | 0.61 | 99 | 1008.5 |
| 20260506175638 | 45 | 354 | 2.0 | 3.0 | 0.00 | 0.80 | 0.61 | 99 | 1008.3 |
| 20260506174618 | 45 | 60 | 2.0 | 3.0 | 0.00 | 0.84 | 0.61 | 99 | 1008.1 |
| 20260506173618 | 45 | 69 | 3.0 | 5.0 | 0.00 | 0.85 | 0.61 | 99 | 1008.0 |
| 20260506172618 | 45 | 58 | 1.0 | 4.0 | 0.00 | 0.85 | 0.61 | 99 | 1007.8 |
| 20260506171618 | 45 | 8 | 1.0 | 2.0 | 0.00 | 0.85 | 0.61 | 99 | 1007.9 |
| 20260506170618 | 45 | 326 | 1.0 | 3.0 | 0.00 | 0.85 | 0.61 | 99 | 1007.7 |
| 20260506165615 | 45 | 59 | 1.0 | 3.0 | 0.00 | 0.85 | 0.61 | 99 | 1007.8 |
| 20260506164619 | 45 | 69 | 2.0 | 4.0 | 0.00 | 0.85 | 0.61 | 99 | 1007.8 |
| 20260506163616 | 45 | 73 | 4.0 | 5.0 | 0.00 | 0.85 | 0.61 | 99 | 1007.7 |
| 20260506162616 | 45 | 45 | 2.0 | 4.0 | 0.00 | 0.85 | 0.61 | 99 | 1007.7 |
| 20260506161637 | 45 | 330 | 0.0 | 1.0 | 0.00 | 0.85 | 0.61 | 99 | 1007.7 |
| 20260506160617 | 44 | 317 | 2.0 | 4.0 | 0.00 | 0.85 | 0.61 | 99 | 1007.9 |
| 20260506155616 | 44 | 22 | 1.0 | 2.0 | 0.00 | 0.85 | 0.61 | 99 | 1007.7 |
| 20260506154616 | 44 | 30 | 1.0 | 2.0 | 0.00 | 0.85 | 0.61 | 99 | 1007.6 |
| 20260506153616 | 44 | 6 | 0.0 | 1.0 | 0.00 | 0.85 | 0.61 | 99 | 1007.7 |
| 20260506152617 | 44 | 68 | 2.0 | 4.0 | 0.00 | 0.85 | 0.61 | 99 | 1007.8 |
| 20260506151637 | 44 | 61 | 3.0 | 4.0 | 0.01 | 0.85 | 0.61 | 99 | 1007.6 |
| 20260506150637 | 44 | 30 | 2.0 | 4.0 | 0.04 | 0.85 | 0.61 | 99 | 1007.6 |
| 20260506145618 | 43 | 31 | 2.0 | 3.0 | 0.05 | 0.85 | 0.61 | 99 | 1007.7 |
| 20260506144617 | 43 | 276 | 1.0 | 3.0 | 0.06 | 0.85 | 0.61 | 99 | 1007.4 |
| 20260506143618 | 43 | 354 | 0.0 | 2.0 | 0.06 | 0.85 | 0.61 | 99 | 1007.1 |
| 20260506142638 | 43 | 261 | 2.0 | 3.0 | 0.06 | 0.85 | 0.61 | 99 | 1007.3 |
| 20260506141658 | 43 | 307 | 2.0 | 3.0 | 0.06 | 0.84 | 0.60 | 99 | 1007.3 |
| 20260506140619 | 43 | 36 | 1.0 | 2.0 | 0.04 | 0.81 | 0.57 | 99 | 1007.3 |
| 20260506135636 | 43 | 196 | 1.0 | 2.0 | 0.05 | 0.80 | 0.56 | 99 | 1007.4 |
| 20260506134616 | 43 | 36 | 3.0 | 4.0 | 0.08 | 0.79 | 0.55 | 99 | 1007.3 |
| 20260506133616 | 43 | 266 | 2.0 | 4.0 | 0.10 | 0.79 | 0.55 | 99 | 1007.4 |
| 20260506132615 | 43 | 345 | 1.0 | 2.0 | 0.11 | 0.78 | 0.54 | 99 | 1007.5 |
| 20260506131616 | 43 | 64 | 2.0 | 3.0 | 0.11 | 0.78 | 0.53 | 99 | 1007.6 |
| 20260506130616 | 43 | 288 | 2.0 | 3.0 | 0.12 | 0.77 | 0.52 | 99 | 1007.6 |
| 20260506125616 | 43 | 12 | 2.0 | 4.0 | 0.11 | 0.75 | 0.50 | 99 | 1007.7 |
| 20260506124617 | 43 | 351 | 2.0 | 4.0 | 0.09 | 0.72 | 0.47 | 99 | 1007.4 |
| 20260506123617 | 43 | 23 | 1.0 | 2.0 | 0.09 | 0.70 | 0.45 | 99 | 1007.6 |
| 20260506122617 | 43 | 311 | 2.0 | 3.0 | 0.08 | 0.68 | 0.43 | 99 | 1007.6 |
| 20260506121617 | 43 | 305 | 1.0 | 3.0 | 0.07 | 0.66 | 0.42 | 99 | 1007.5 |
| 20260506120617 | 43 | 305 | 1.0 | 3.0 | 0.07 | 0.65 | 0.41 | 99 | 1007.2 |
| 20260506115617 | 43 | 1 | 1.0 | 2.0 | 0.08 | 0.64 | 0.39 | 99 | 1007.3 |
| 20260506114618 | 43 | 67 | 3.0 | 6.0 | 0.08 | 0.62 | 0.38 | 99 | 1007.3 |
| 20260506113618 | 43 | 17 | 2.0 | 4.0 | 0.11 | 0.61 | 0.37 | 99 | 1007.2 |
| 20260506112618 | 44 | 346 | 1.0 | 3.0 | 0.16 | 0.60 | 0.35 | 99 | 1007.0 |
| 20260506111639 | 44 | 26 | 2.0 | 3.0 | 0.20 | 0.59 | 0.35 | 99 | 1006.9 |
| 20260506110619 | 45 | 11 | 2.0 | 3.0 | 0.23 | 0.58 | 0.34 | 99 | 1006.9 |
| 20260506105616 | 45 | 51 | 3.0 | 5.0 | 0.24 | 0.56 | 0.32 | 99 | 1007.0 |
| 20260506104616 | 46 | 310 | 3.0 | 6.0 | 0.23 | 0.54 | 0.30 | 99 | 1006.9 |
| 20260506103636 | 46 | 0.0 | 0.0 | 0.19 | 0.50 | 0.25 | 99 | 1007.0 | |
| 20260506102616 | 46 | 65 | 0.0 | 2.0 | 0.14 | 0.44 | 0.20 | 99 | 1006.8 |
| 20260506101616 | 47 | 301 | 2.0 | 3.0 | 0.09 | 0.39 | 0.14 | 99 | 1006.8 |
| 20260506100636 | 47 | 274 | 1.0 | 3.0 | 0.05 | 0.35 | 0.10 | 99 | 1006.7 |
| 20260506095617 | 47 | 9 | 0.0 | 1.0 | 0.03 | 0.32 | 0.08 | 99 | 1006.6 |
| 20260506094616 | 46 | 52 | 0.0 | 1.0 | 0.03 | 0.31 | 0.07 | 99 | 1006.8 |
| 20260506093617 | 46 | 39 | 2.0 | 3.0 | 0.02 | 0.31 | 0.06 | 99 | 1006.8 |
| 20260506092618 | 46 | 60 | 3.0 | 5.0 | 0.02 | 0.30 | 0.06 | 99 | 1006.9 |
| 20260506091617 | 47 | 16 | 2.0 | 3.0 | 0.04 | 0.37 | 0.06 | 99 | 1007.2 |
| 20260506090618 | 47 | 81 | 3.0 | 6.0 | 0.04 | 0.37 | 0.06 | 98 | 1007.4 |
| 20260506085618 | 47 | 130 | 1.0 | 2.0 | 0.04 | 0.36 | 0.05 | 98 | 1007.7 |
| 20260506084618 | 47 | 63 | 2.0 | 4.0 | 0.04 | 0.35 | 0.04 | 98 | 1007.7 |
| 20260506083757 | 47 | 54 | 2.0 | 3.0 | 0.04 | 0.35 | 0.04 | 98 | 1007.5 |
| 20260506082616 | 47 | 63 | 1.0 | 3.0 | 0.04 | 0.35 | 0.04 | 98 | 1007.7 |
| 20260506081616 | 47 | 11 | 1.0 | 3.0 | 0.02 | 0.33 | 0.02 | 98 | 1007.8 |
| 20260506080616 | 47 | 18 | 1.0 | 2.0 | 0.01 | 0.33 | 0.01 | 98 | 1007.2 |
| 20260506072616 | 47 | 287 | 0.0 | 1.0 | 0.00 | 0.31 | 0.00 | 98 | 1007.1 |
| 20260506071617 | 47 | 340 | 0.0 | 1.0 | 0.00 | 0.31 | 0.00 | 97 | 1007.3 |
| 20260506070638 | 47 | 215 | 3.0 | 4.0 | 0.00 | 0.31 | 0.00 | 97 | 1007.4 |
| 20260506061638 | 47 | 0.0 | 0.0 | 0.00 | 0.31 | 0.00 | 97 | 1008.2 | |
| 20260506060618 | 47 | 0.0 | 0.0 | 0.00 | 0.31 | 0.00 | 97 | 1008.4 |